Skip Page Navigation
NASA JPL Caltech
NASA Logo - Jet Propulsion Laboratory + View the NASA Portal
+ Center for Near-Earth Object Studies
JPL Home Earth Solar System Stars & Galaxies Technology
JPL Solar System Dynamics
BODIES ORBITS EPHEMERIDES TOOLS PHYSICAL DATA DISCOVERY FAQ SITE MAP
JPL Small-Body Database Browser
Search: [ help ]  
213732 (2002 VS125)
Classification: Main-belt Asteroid          SPK-ID: 2213732
Ephemeris | Orbit Diagram | Orbital Elements | Mission Design | Physical Parameters | Discovery Circumstances | Close-Approach Data ]

[ show orbit diagram ]
Orbital Elements at Epoch 2459200.5 (2020-Dec-17.0) TDB
Reference: JPL 23 (heliocentric ecliptic J2000)
 Element Value Uncertainty (1-sigma)   Units 
e .2491740485197693 6.0062e-08  
a 3.14111703664366 1.9412e-08 au
q 2.358432187748738 1.8414e-07 au
i 9.188907717818298 7.6452e-06 deg
node 20.14551960154951 2.8353e-05 deg
peri 136.4766508226096 3.1679e-05 deg
M 18.82994065022638 1.2462e-05 deg
tp 2459094.141781384807
(2020-Sep-01.64178138)
6.9827e-05 TDB
period 2033.408358141005
5.57
1.8849e-05
5.161e-08
d
yr
n .177042647906258 1.6411e-09 deg/d
Q 3.923801885538581 2.4248e-08 au
  Orbit Determination Parameters
   # obs. used (total)      557  
   data-arc span      6743 days (18.46 yr)  
   first obs. used      2002-11-14  
   last obs. used      2021-05-01  
   planetary ephem.      DE441  
   SB-pert. ephem.      SB441-N16  
   condition code      0  
   norm. resid. RMS      .55231  
   source      ORB  
   producer      Otto Matic  
   solution date      2021-May-04 10:39:38  

Additional Information
 Earth MOID = 1.37697 au 
 Jupiter MOID = 1.11219 au 
 T_jup = 3.142 
[ show covariance matrix ]

Ephemeris | Orbit Diagram | Orbital Elements | Mission Design | Physical Parameters | Discovery Circumstances | Close-Approach Data ]

Physical Parameter Table
Parameter Symbol Value Units Sigma Reference Notes
absolute magnitude H 15.05   n/a MPCxxxxx  
diameter diameter 5.964 km 0.152 urn:nasa:pds:neowise_diameters_albedos::2.0[mainbelt] (http://adsabs.harvard.edu/abs/2011ApJ...741...68M)  
geometric albedo albedo 0.065   0.005 urn:nasa:pds:neowise_diameters_albedos::2.0[mainbelt] (http://adsabs.harvard.edu/abs/2011ApJ...741...68M)  

213732 (2002 VS125)          Discovered 2002-Nov-14 by LINEAR at Socorro
Reference: 20090509/Numbers.arcLast Updated: 2009-05-11

[ show close-approach data ]
Ephemeris | Orbit Diagram | Orbital Elements | Mission Design | Physical Parameters | Discovery Circumstances | Close-Approach Data ]
ABOUT SSD CREDITS/AWARDS PRIVACY/COPYRIGHT GLOSSARY LINKS
FirstGov 2021-May-14 23:16 UT
(server date/time)  
NASA Home Page
Site Manager:   Ryan S. Park
Webmaster  Alan B. Chamberlin